STARLINK-3052, 49165

Orbit data source: Space-Track

STARLINK-3052, 49165 is a payload satellite owned by SpaceX/Seattle (US) in LEO that was launched on Tue, 14 Sep 2021 UTC via an FALCON 9 launch vehicle from the Air Force Western Test Range (AFWTR). Payload-class satellites include a variety of spacecraft equipped with specific instruments for various scientific and technological missions. These include communications satellites like Starlink; space stations such as the ISS; scientific satellites like the Hubble; Earth observation satellites from companies like Planet Labs, Umbra, and HawkEye 360; GPS; miniature CubeSats for education and research; and military/defense satellites.

Loading next visibility...
Identifier
49165, 2021-082AM
Orbit
LEO
Country
Flag of USUS
Related business
Manufacturer
SpaceX/Seattle
Mission
Operational Commercial Communications
Bus & Motor
STARLINK, Unknown motor
Mass
297 kg wet, ~275 kg dry
Launch date (UTC)
2021-09-14 (4 years ago)
Launch vehicle
FALCON 9
Launch site
Air Force Western Test Range (AFWTR)
Object type
Payload
Rocket body
Debris
Shape & HBR
Box + 1 Pan, 10.1 m
Radar Cross Section
13.562 m², Large (>1 m²)

Expand to show TLE details & history
Last TLE update: 16 hours ago

TLE from 16 hours ago
0 STARLINK-3052
1 49165U 21082AM  26035.35901176  .00000680  00000-0  64790-4 0  9990
2 49165  70.0006  18.5092 0003077 267.9651  92.1156 14.98328966242185
Epoch: 2026-02-04T08:36Z
TLE epoch observation values (Epoch: 2026-02-04T08:36:58.616Z)
Latitude
0.00003°
Longitude
114.73825°
Altitude
574.563 km
Speed
7.574 km/s
True Right ascension
01h 14m 02s
True Declination
0° 00' 00"
Sunlit
Object was in daylight at epoch
Visualization orbit readout
Latitude
Unknown
Longitude
Unknown
Altitude
Unknown
Speed
Unknown
Apparent Right ascension
Unknown
Apparent Declination
Unknown
Sunlit
N/A
Visualization observer readout
Local Sidereal Time
03:05:20
Azimuth
Unknown
Elevation
Unknown
Doppler factor
Unknown
Orbital elements
Apogee altitude
572.145 km
Perigee altitude
567.869 km
Semi-major axis
6,948.144 km
Eccentricity
0.00031
Inclination
70.0006°
RAAN
18.5092°
Arg. of periapsis
267.9651°
True anomaly
92.15084°
Mean anomaly
92.1156°
Eccentric anomaly
92.13322°
Mean motion
3.74749 °/min
Orbital period
96.06 mins
BSTAR
0.00006479
Loading maneuver chart data...
Computing Atmospheric mass density...
Loading historical data...
Loading historical data...
Loading historical data...
Loading historical data...
Loading historical data...
Loading historical data...
Loading historical data...

Documentation

Showing up to 5 results
|